STARLINK-1400, 45700

Orbit data source: Space-Track

STARLINK-1400, 45700 is a payload satellite owned by SpaceX/Seattle (US) in LEO that was launched on Thu, 04 Jun 2020 UTC via an FALCON 9 launch vehicle from the Air Force Eastern Test Range (AFETR). Payloads include a variety of satellites, spacecraft, and rockets equipped with specific instruments for various scientific and technological missions. These include communications satellites like Starlink; space stations such as the ISS; scientific satellites like the Hubble; Earth observation satellites from companies like Planet Labs, Umbra, and HawkEye 360; GPS; miniature CubeSats for education and research; and military/defense satellites.

Loading next visibility...
STARLINK-1400 details
Identifier
45700, 2020-035AV
Orbit
LEO
Last TLE update13 hours ago
Origin
Flag of USSpaceX/Seattle (US)
ManufacturerSpaceX/Seattle
MissionOperational Commercial Communications
Bus & MotorSTARLINK, Unknown motor
Mass260 kg wet, ~248 kg dry
Launch date (UTC)
2020-06-04 (5 years ago)
Launch vehicle
FALCON 9
Launch site
Air Force Eastern Test Range (AFETR)
Object type
Payload
Rocket body
Debris
Shape & HBRBox + 1 Pan, 8.86 m
Radar Cross Section13.562 m², Large (>1 m²)

Expand to show TLE details & history

TLE from 13 hours ago
0 STARLINK-1400
1 45700U 20035AV  24339.59559763  .00008343  00000-0  57795-3 0  9990
2 45700  53.0557 302.0602 0001638 100.0373 260.0801 15.06422498249393
Epoch: 2024-12-04T14:17Z
Definitive object data (Epoch: 2024-12-04T14:17:39.635Z)
Latitude-0°
Longitude13.75656°
Altitude548.218 km
Speed7.589 km/s
True Right ascension20h 08m 14s
True Declination0° 00' 00"
Sunlit
Object was in daylight at TLE epoch
Visualization TLE readout
Latitude11.65747°
Longitude-177.64008°
Altitude546.725 km
Speed7.591 km/s
Apparent Right ascension09h 52m 52s
Apparent Declination-18° 30' 36"
Sunlit
Object is in full shadow
Visualization observer readout
Local Sidereal Time01:43:05
Azimuth84.084° E
Elevation-36.432°
Doppler factor1
Orbital elements
Apogee altitude548.548 km
Perigee altitude546.279 km
Semi-major axis6,925.55 km
Eccentricity0.0001638
Inclination53.0557°
RAAN302.0602°
Arg. of periapsis100.0373°
True anomaly260.06161°
Mean anomaly260.0801°
Eccentric anomaly260.07086°
Mean motion3.76584 °/min
BSTAR0.00057795
Orbital period95.6 mins
Loading maneuver chart data...

STARLINK-1400 Visibility forecast

Observer location: undefined°, undefined

Span
Click to sort rows by Start time (UTC) header in descending order
Start Az.
Max El. time (UTC)
Max El. Az.
Max El.
End time (UTC)
End Az.
4 mins2024-12-05 05:02:48.289Z342.563° N2024-12-05 05:04:48.289Z14.84° NNE15.263°2024-12-05 05:06:48.289Z46.65° ENE
6 mins2024-12-05 06:42:48.289Z330.131° NNW2024-12-05 06:44:48.289Z19.988° NNE35.453°2024-12-05 06:48:48.289Z107.539° ESE
4 mins2024-12-05 08:22:48.289Z265.334° W2024-12-05 08:24:48.289Z220.538° SW22.748°2024-12-05 08:26:48.289Z183.992° SSW
6 mins2024-12-05 23:54:48.289Z210.158° SW2024-12-05 23:56:48.289Z170.531° S39.355°2024-12-06 00:00:48.289Z57.957° ENE
5 mins2024-12-06 01:34:48.289Z288.602° WNW2024-12-06 01:36:48.289Z327.934° NNW23.562°2024-12-06 01:39:48.289Z25.783° NE
|